Zurück zum Katalog

DELTA 1 DEB

AktivSSO
NORAD 7071·DEBRIS·🇺🇸 United States

Gestartet Nov 6, 1973 von Vandenberg Space Force Base

Loading…

Nächste Überflüge (nächste 24 Stunden)

TLE

AktuellSource: Space-Track

Epoche: Sep 14, 2026, 11:13 UTC

1 07071U 73086BP  26257.46786478 -.00000027  00000-0  11267-3 0  9991
2 07071 101.6366 235.9961 0005983 290.0558 222.2140 12.41174682394194

Verfolge DELTA 1 DEB in Echtzeit mit AllMySat

Download on the App Store